Theta_e
343 342 342 344 344 345 345 343 338 337 336 332 331 330 331 334 338 338 337 338 337 335 333 335 336 338 338 339 340 340 341 341 341 340 338 336 334 333 335 336 335 332 329 331 334 334 334 335 335 335 335 334 334 334 332 333 333 333 333 334 334 334 334 333 333 333 332 331 331 332 332 332 332 331 331 332 331 330 331 331 331 330 331 331 331
342 341 343 343 343 345 344 343 337 332 333 329 326 325 328 334 337 338 337 338 337 335 334 335 337 338 339 340 340 341 341 340 339 336 334 333 334 337 339 337 331 325 325 330 334 334 334 336 336 334 334 333 333 332 332 332 332 332 332 332 332 332 332 332 331 330 330 331 331 332 332 331 329 329 330 330 329 329 329 329 329 329 330 330 330
340 341 341 338 341 343 343 343 337 333 331 327 326 326 329 336 338 338 338 338 337 336 335 336 338 338 339 340 340 340 340 339 337 333 334 335 337 339 337 332 327 325 326 328 332 334 334 336 335 334 334 333 333 333 333 332 332 331 330 329 328 328 329 330 331 331 331 332 332 332 332 330 329 328 328 329 328 327 327 326 326 328 329 329 329
339 340 339 338 339 339 342 342 338 338 334 326 325 324 329 336 339 338 338 338 337 336 336 337 338 339 339 339 340 340 339 338 335 333 335 337 338 338 333 328 324 326 329 331 332 334 334 335 335 334 334 334 333 334 334 332 331 330 330 329 327 326 326 328 330 331 331 332 332 332 331 330 331 329 329 330 328 327 327 327 327 328 329 329 329
342 342 341 339 336 337 340 337 338 339 331 323 322 323 329 336 338 338 338 338 337 336 337 338 338 339 339 339 340 340 338 335 334 335 337 339 338 335 331 327 325 326 329 331 331 332 332 334 335 334 334 334 334 335 334 333 332 332 331 330 329 328 326 327 330 330 330 331 331 331 331 332 332 331 331 331 330 329 329 329 329 328 329 329 329
341 341 341 339 337 339 337 335 339 334 324 322 322 324 331 336 337 338 339 338 338 337 337 338 338 339 339 340 340 338 335 333 334 336 338 339 338 335 330 328 330 329 329 330 330 331 332 334 334 334 334 334 335 335 334 334 333 333 333 332 332 331 328 327 329 329 328 329 329 330 331 332 332 332 332 331 330 330 330 330 330 329 329 330 329
341 339 338 337 339 340 335 336 337 328 322 323 324 329 333 336 338 338 339 338 338 338 338 338 338 339 339 340 339 337 335 333 335 338 339 338 338 336 330 330 333 332 331 330 332 333 333 334 334 334 335 335 335 335 334 334 334 334 334 333 333 332 328 326 326 325 325 327 327 327 329 331 332 332 332 331 331 330 330 330 329 329 329 328 327
342 342 341 340 342 341 335 335 333 324 323 325 328 331 334 336 337 338 339 339 339 339 338 338 338 338 339 339 338 337 335 335 337 338 338 338 337 335 330 331 334 332 332 331 332 334 334 334 335 335 335 335 335 335 335 334 334 334 334 333 333 331 327 325 325 325 324 325 325 325 328 329 331 332 332 331 331 331 330 329 329 327 326 326 326
344 344 343 343 343 339 335 335 331 324 325 326 329 333 335 337 337 338 339 339 339 339 339 338 337 337 338 337 337 337 336 337 338 338 337 336 335 333 330 331 333 331 330 333 334 334 334 335 335 335 335 335 335 334 333 332 333 332 333 333 332 330 327 324 325 326 326 326 326 327 329 330 330 332 332 331 331 330 328 326 325 325 326 326 326
344 345 344 344 341 337 337 337 330 325 327 326 329 335 337 337 337 338 338 339 339 339 339 338 337 337 337 336 336 336 337 338 339 338 338 337 335 333 330 331 333 332 331 334 336 335 335 335 335 335 335 334 333 331 330 329 330 330 330 332 332 331 326 323 324 325 326 328 328 328 329 329 330 331 331 330 329 327 325 323 323 324 326 326 326
345 345 344 343 341 338 338 337 332 329 327 326 331 336 338 338 338 338 338 339 339 339 338 337 337 336 336 336 336 337 339 338 338 338 338 336 334 332 331 330 331 331 333 335 336 335 335 335 334 334 333 331 329 328 328 328 328 329 329 330 331 331 327 323 324 324 325 327 327 327 327 327 329 329 329 328 326 325 324 324 325 326 327 327 328
345 345 343 342 341 338 338 337 337 336 333 331 333 337 338 339 339 339 339 339 339 339 337 337 337 336 336 336 337 338 338 338 338 338 337 334 331 331 331 330 327 324 326 332 335 335 335 334 332 330 329 328 328 329 329 329 329 329 330 331 331 330 327 324 324 324 325 326 326 326 325 324 326 326 327 328 328 328 327 326 326 327 327 328 328
344 343 342 341 341 339 337 337 338 339 338 337 337 338 339 339 340 340 340 339 339 339 337 337 336 336 336 336 337 338 338 339 339 338 337 333 330 330 331 331 329 323 318 322 329 331 332 330 328 327 327 327 329 330 329 330 330 330 331 332 332 330 326 325 324 324 324 325 326 326 325 324 324 326 326 328 330 330 329 328 327 327 327 328 327
343 341 341 340 339 338 337 337 338 338 339 340 340 340 339 339 339 339 340 339 340 339 337 337 336 337 336 336 337 338 338 338 338 337 336 332 329 330 331 331 330 327 319 317 321 325 326 326 327 327 327 327 329 330 329 331 332 331 331 332 331 329 326 325 324 324 323 323 324 325 326 327 327 327 328 328 329 329 328 328 327 327 327 326 325
342 340 341 340 339 338 336 336 337 337 337 339 340 340 339 338 338 339 339 339 339 338 337 337 337 337 336 336 337 338 339 339 339 337 336 332 329 330 331 330 330 330 325 318 318 321 325 326 327 327 327 327 328 330 330 331 332 330 330 330 329 327 326 325 324 324 323 323 324 325 327 327 328 328 329 328 328 327 327 327 326 326 326 325 325
341 341 341 341 340 339 337 337 337 337 337 338 339 339 339 338 338 338 338 338 339 338 338 337 337 337 337 338 339 339 340 340 340 338 337 334 329 329 331 331 330 331 330 324 319 319 324 326 327 327 327 326 327 330 330 329 330 328 328 328 327 327 326 325 325 324 324 324 324 326 327 328 329 329 329 328 326 326 327 326 325 325 325 324 324
341 341 342 342 340 339 337 337 337 337 338 339 338 339 338 338 338 337 337 337 338 338 338 338 338 338 338 339 339 340 340 339 339 339 338 337 332 330 330 330 329 330 331 330 324 320 321 325 327 326 327 326 327 329 330 329 328 328 328 327 327 327 326 326 326 325 325 323 323 325 327 328 329 329 329 328 326 326 327 323 323 325 324 323 323
340 340 340 339 337 336 334 333 334 337 338 338 338 337 337 336 336 335 335 335 336 337 337 337 338 338 338 338 339 339 339 338 338 338 337 337 335 331 330 330 329 329 330 331 330 324 320 321 325 327 327 326 326 327 328 329 329 330 329 328 329 328 327 327 326 325 325 323 322 324 327 328 328 328 329 328 326 327 326 323 323 325 325 324 323
337 337 337 336 334 333 331 330 331 333 336 336 335 335 335 335 335 334 334 334 335 335 335 335 335 336 336 336 337 337 338 338 337 337 336 337 336 334 333 332 331 330 330 330 331 330 325 320 321 325 327 326 325 326 325 327 329 330 329 329 330 330 329 328 327 326 325 322 321 322 325 328 327 328 328 328 326 327 327 325 325 325 325 325 324
337 337 336 336 333 332 332 332 332 333 335 335 335 335 335 335 335 335 335 335 335 335 335 335 335 335 335 335 334 335 335 335 335 335 335 336 336 336 335 334 333 332 330 330 331 332 330 324 320 322 326 326 326 326 325 326 328 329 329 329 330 330 329 328 327 326 325 322 321 322 325 327 326 326 328 327 326 327 327 326 325 325 325 324 324
338 335 333 334 330 328 332 333 333 335 336 335 335 336 335 335 336 336 336 336 336 336 335 335 335 335 335 335 335 334 334 334 333 333 334 335 335 336 337 335 334 333 331 330 330 331 332 330 324 321 324 326 326 326 325 326 328 329 329 329 329 329 329 329 327 327 325 323 322 323 326 327 326 326 327 326 326 326 327 326 325 325 324 324 324
337 335 336 336 330 329 332 333 334 336 336 335 335 336 336 335 335 336 336 337 337 336 335 335 334 334 334 334 335 335 335 335 335 334 334 333 334 334 336 336 336 335 333 331 330 330 331 331 328 323 324 325 326 326 325 327 328 329 329 330 329 328 328 328 328 327 325 324 322 323 327 327 325 326 326 326 326 326 326 325 324 324 324 323 323
337 338 339 336 330 331 334 334 335 335 335 334 334 334 335 335 334 335 335 337 338 336 336 336 334 334 334 334 334 334 334 334 335 337 336 335 335 334 334 335 336 335 334 332 330 329 329 330 330 325 324 325 326 325 325 327 328 329 330 331 331 329 328 327 327 327 326 324 322 323 327 327 325 326 325 325 326 325 326 325 324 324 323 323 323
337 338 338 335 332 336 338 337 335 334 334 333 333 332 332 332 332 332 333 335 336 335 336 336 334 334 334 334 333 333 334 333 334 335 335 335 335 335 334 334 334 335 335 333 330 329 328 329 330 327 324 325 326 325 326 327 328 329 330 332 333 333 330 328 327 327 326 325 323 322 326 326 325 327 326 325 326 325 325 325 325 324 324 323 323
336 337 337 336 337 339 339 338 337 336 335 333 334 333 332 332 331 332 332 333 335 335 337 337 336 335 334 334 333 332 333 333 332 332 332 333 334 335 335 334 334 334 334 334 332 329 327 327 329 328 325 325 325 325 326 327 328 329 331 333 335 335 334 331 329 327 326 325 323 322 325 325 324 326 327 326 326 325 325 325 324 324 324 324 323
336 336 336 336 337 337 338 339 338 338 337 334 335 336 335 335 335 336 336 336 337 338 338 338 338 337 336 334 333 333 333 332 332 332 332 331 331 333 334 335 335 335 334 334 333 330 327 326 327 328 327 326 325 325 327 327 327 329 332 334 335 335 335 334 333 330 327 325 324 322 325 326 322 324 327 326 325 326 325 324 324 324 324 324 323
334 334 334 335 334 335 336 337 337 337 338 336 336 337 338 338 338 338 338 338 338 338 339 338 337 337 335 334 333 333 333 332 332 332 332 330 330 331 333 334 334 335 334 335 335 332 329 327 325 326 327 327 327 326 327 328 329 331 333 335 335 335 335 335 335 333 330 327 325 323 324 326 322 322 324 324 324 326 326 324 325 324 324 324 324
333 334 335 335 334 335 336 336 337 336 337 336 336 336 336 337 337 337 336 336 336 337 337 336 336 336 335 335 335 334 334 334 333 333 332 331 331 330 331 332 332 333 334 334 335 335 334 332 330 328 327 327 327 327 329 330 332 333 334 335 335 335 336 336 335 334 333 330 328 325 324 326 323 321 321 321 323 325 326 326 325 325 324 324 324
334 336 336 337 337 337 338 338 337 337 337 337 336 335 335 334 335 335 336 336 337 337 337 337 337 337 336 335 335 335 335 335 334 334 333 332 332 332 332 333 332 331 331 332 333 334 335 335 335 333 332 331 330 329 329 330 332 333 334 335 335 335 336 336 335 334 333 332 330 327 325 325 325 321 320 320 321 323 324 325 325 325 325 324 324
337 337 338 338 338 337 335 335 334 335 336 336 336 336 336 336 336 336 337 337 338 339 339 339 339 338 337 336 336 336 335 335 335 334 334 334 334 334 334 334 333 332 331 331 332 332 333 334 334 334 335 334 334 333 333 333 333 334 335 335 335 335 335 335 335 335 334 333 331 329 327 326 325 324 321 320 321 322 322 322 324 324 325 325 324
337 337 336 336 335 334 333 333 333 333 333 333 333 333 334 335 335 335 336 337 338 339 338 338 338 338 338 337 337 337 337 336 336 335 335 335 335 335 334 334 334 334 332 330 330 330 331 333 334 334 334 335 334 334 335 335 335 335 335 335 335 335 335 335 334 335 334 333 332 331 328 327 326 325 324 321 320 322 323 323 324 324 324 325 325
334 333 333 332 331 330 330 330 329 328 329 328 327 328 329 330 332 332 334 336 337 338 338 336 336 337 338 337 337 338 338 338 337 337 336 335 335 335 335 334 334 334 334 332 331 331 331 331 333 334 334 334 334 334 334 334 334 334 334 334 334 334 334 334 334 334 334 333 333 331 330 328 327 326 326 324 322 322 323 324 326 326 324 324 326
330 329 329 328 326 326 325 325 325 325 325 323 322 323 324 325 327 328 329 331 332 334 333 332 332 333 334 335 336 337 337 338 338 338 337 337 337 336 336 336 335 334 334 334 334 334 332 331 331 332 331 333 334 334 334 334 333 333 333 333 333 334 334 334 334 334 334 333 333 333 331 328 327 327 327 326 325 323 322 323 325 326 325 324 325
326 326 326 325 324 323 323 323 322 323 323 322 321 320 320 321 322 323 324 325 326 326 326 326 326 327 329 330 332 333 334 335 336 336 337 337 338 338 337 337 337 336 335 334 334 334 334 332 331 331 331 332 333 334 334 334 333 333 333 333 333 333 333 334 334 334 334 333 333 333 332 330 328 328 327 327 327 325 324 324 323 324 325 325 325
323 323 324 324 324 323 322 321 319 319 319 320 320 318 318 319 319 319 320 321 322 322 322 322 323 323 324 325 326 328 329 330 332 333 334 335 336 337 337 337 337 337 336 336 335 334 334 333 333 332 331 332 333 333 334 334 334 334 333 333 333 332 332 332 333 334 334 334 334 334 333 331 330 329 328 327 328 327 326 325 325 324 324 324 324
322 321 321 322 322 322 321 320 318 315 313 315 317 316 316 316 316 317 317 318 319 319 320 320 320 321 322 323 324 324 325 326 328 330 332 333 334 335 336 337 337 337 337 336 336 335 334 334 333 333 332 332 332 332 333 333 334 333 333 333 332 332 332 332 332 333 334 334 334 334 334 333 332 331 330 329 328 328 328 327 327 326 325 325 324
322 322 321 320 321 321 321 320 318 314 310 311 312 313 313 314 314 314 314 315 315 315 316 317 318 319 320 321 322 323 324 325 325 327 329 331 332 334 335 336 336 336 336 335 335 336 335 335 334 334 333 332 332 331 332 332 333 333 333 333 333 333 332 332 331 332 332 332 333 334 334 334 333 332 332 331 330 330 329 329 328 328 327 326 325
323 322 321 320 320 321 320 320 319 315 311 311 312 312 312 312 312 312 312 311 312 312 313 314 315 316 317 318 320 322 323 324 324 325 327 328 330 332 334 335 335 335 335 335 335 335 335 336 335 335 335 334 333 333 332 332 332 332 333 333 333 333 333 332 332 331 331 331 331 331 333 334 334 333 333 332 332 331 331 330 329 328 328 327 327
322 322 321 320 320 320 320 319 319 316 314 313 313 313 312 312 311 310 309 310 311 313 314 314 315 315 315 316 318 320 322 323 324 324 325 326 327 328 331 332 333 334 334 334 335 335 335 335 335 335 335 335 334 334 333 332 332 331 331 332 332 332 332 332 332 332 331 331 331 330 331 332 333 334 334 333 332 332 332 331 330 329 329 328 328
322 321 320 320 319 319 318 318 318 317 316 314 313 313 312 312 311 310 311 312 314 316 317 318 318 318 317 316 316 318 321 323 324 324 325 325 325 327 328 330 331 332 332 333 334 334 335 334 334 335 334 334 334 334 334 333 333 332 331 331 331 331 331 331 332 332 331 331 331 330 330 330 331 332 333 333 333 333 333 332 331 330 329 328 328
321 320 319 318 319 318 317 317 317 317 316 315 314 313 313 313 313 314 315 317 318 318 319 320 320 320 320 319 317 318 320 323 323 324 326 326 326 327 328 329 330 330 330 331 332 333 334 333 334 333 333 333 333 333 334 334 333 333 332 331 330 330 330 331 331 331 331 331 330 330 329 329 329 330 331 333 334 334 333 333 332 331 331 330 330
320 319 318 317 317 317 317 316 316 316 316 316 314 314 314 314 315 316 317 318 319 320 321 321 321 322 322 321 319 319 319 321 323 323 326 328 328 328 328 327 328 328 328 329 329 331 332 333 333 333 333 333 332 332 333 333 333 332 331 331 331 331 330 329 330 330 330 330 330 330 329 329 329 329 330 331 333 333 334 333 332 332 332 332 332
320 319 318 316 315 315 315 315 316 316 315 316 315 314 315 315 315 317 317 319 320 321 322 322 322 322 322 323 322 320 319 320 321 322 324 327 328 327 327 326 326 326 326 327 328 328 329 331 332 333 333 332 331 331 332 332 332 332 331 331 332 332 332 330 329 330 330 330 330 329 329 329 329 329 331 332 332 333 333 333 332 332 333 333 333
320 319 318 316 315 314 314 314 314 315 315 316 315 315 315 315 315 316 317 319 321 321 321 322 322 323 323 324 323 322 321 320 321 322 323 325 326 326 326 326 325 325 325 326 327 327 328 330 331 333 332 331 330 330 331 331 331 332 331 331 329 329 333 330 327 329 330 330 330 329 329 329 329 329 331 331 331 332 333 333 332 332 332 333 334
319 319 318 317 316 314 313 313 313 314 314 315 315 315 315 315 315 316 317 319 321 321 321 321 322 323 323 324 324 324 323 323 323 323 324 325 325 326 325 325 324 324 325 326 327 328 328 330 332 331 330 330 331 330 330 329 329 330 330 331 330 330 333 329 326 329 329 329 330 330 330 330 330 331 331 330 330 331 332 332 333 332 333 334 335
319 318 318 317 316 314 313 313 314 314 313 314 314 315 315 314 315 317 319 320 321 321 321 321 322 323 323 324 324 325 325 325 325 325 325 326 326 326 325 325 324 324 325 326 327 328 329 330 331 330 329 330 331 330 330 329 328 328 328 330 331 331 330 328 328 330 329 329 329 329 330 330 331 332 332 332 331 331 331 332 332 333 334 334 333
318 318 318 317 316 314 313 314 314 313 313 314 314 315 315 315 316 318 320 320 320 321 321 321 322 322 323 323 324 325 325 325 326 326 327 326 326 326 326 325 325 325 326 326 328 329 329 330 330 330 331 331 330 330 329 329 328 328 328 329 329 329 329 329 329 329 330 330 329 329 330 330 330 331 332 332 332 332 332 332 333 333 333 332 332
318 317 317 316 316 315 315 314 314 313 313 314 314 314 315 316 317 319 319 320 320 320 321 321 322 322 322 323 323 324 325 325 326 326 326 326 326 326 326 326 326 327 327 327 328 328 328 328 328 329 330 329 328 329 329 328 328 328 329 330 330 330 330 329 328 328 329 330 329 329 329 328 329 329 330 330 331 332 332 332 332 332 331 331 331
317 316 316 316 316 316 315 314 314 312 313 313 313 314 316 317 318 319 319 320 320 320 321 321 322 322 322 323 323 324 325 325 326 326 326 326 326 326 326 326 326 327 327 327 327 327 327 327 327 327 327 327 327 327 328 328 328 329 329 329 330 329 329 329 328 328 328 329 330 329 328 328 328 329 329 329 330 330 330 330 330 329 329 328 328
317 316 316 316 317 316 314 314 313 312 312 313 314 314 316 317 318 319 319 319 319 320 321 321 322 322 322 322 323 324 325 325 325 326 326 326 325 325 325 325 325 326 326 326 326 327 326 326 326 325 326 326 326 326 326 327 327 327 327 327 328 329 328 328 328 328 328 328 329 329 328 327 327 328 329 329 329 330 329 329 329 329 328 326 326
317 317 317 317 317 315 314 314 312 311 312 313 314 314 315 317 318 318 318 319 319 320 320 321 321 321 321 322 323 323 324 325 325 325 325 325 325 325 325 325 325 325 325 325 326 325 325 326 325 325 325 325 325 325 325 325 326 326 326 327 327 328 328 328 327 328 328 328 328 328 327 327 327 328 328 329 328 329 329 330 330 330 329 328 328
Wind_Speed
12 13 12 14 13 11 13 10 12 14 15 16 17 18 19 20 20 19 19 20 20 21 21 20 20 20 19 19 19 19 18 19 19 19 19 18 17 16 15 15 14 12 10 11 12 13 13 15 16 16 17 18 18 19 19 18 17 16 16 15 15 15 16 15 15 15 15 13 11 13 16 17 16 14 14 14 14 14 15 16 16 16 16 16 16
12 16 18 17 14 11 12 9 9 14 15 16 17 18 19 20 19 18 19 19 20 21 20 19 19 18 18 18 18 18 18 19 20 19 18 17 16 15 15 13 11 10 10 11 12 12 13 15 15 15 17 19 19 19 19 18 18 17 17 16 16 15 14 14 14 14 13 12 13 13 15 16 16 15 14 14 14 14 15 15 14 15 16 15 15
17 20 22 19 16 11 11 9 7 12 15 16 18 18 19 19 19 18 18 19 19 20 19 18 17 17 17 17 17 18 19 19 19 18 17 16 15 15 14 12 11 11 11 12 13 14 14 14 14 15 17 18 18 18 18 18 18 18 18 17 15 14 12 11 12 13 11 11 13 14 15 16 16 15 14 14 14 14 14 14 13 14 14 14 14
22 24 25 24 19 13 12 10 7 10 13 16 18 18 19 18 18 17 18 18 18 19 17 17 17 17 16 17 17 17 18 17 16 16 16 16 16 16 13 12 12 12 12 14 14 14 14 14 15 16 17 17 16 16 17 17 18 17 17 17 15 14 11 11 12 11 11 13 15 15 16 16 15 15 14 14 14 14 14 14 14 13 13 14 14
25 27 28 28 22 17 15 14 10 10 13 16 18 18 18 17 18 17 17 17 17 17 17 17 16 16 16 16 16 17 17 16 15 15 15 16 16 16 13 12 12 13 13 14 14 14 14 15 15 16 16 16 15 15 15 16 16 16 16 15 14 14 13 12 12 11 12 15 15 16 16 15 13 13 13 13 14 14 14 15 15 13 13 14 14
27 29 28 29 25 22 20 19 15 13 16 17 18 17 17 17 17 17 17 16 16 16 16 16 15 16 15 15 15 16 16 15 14 14 14 15 16 14 13 13 13 13 14 14 15 15 15 16 16 15 15 15 15 14 14 14 15 15 14 14 14 13 13 12 13 13 13 15 14 14 15 13 12 12 13 14 14 14 14 15 15 14 14 15 15
27 29 28 28 29 28 25 24 19 18 18 17 17 16 17 18 17 17 16 16 16 15 15 15 14 15 14 14 15 15 14 14 14 14 14 15 15 13 13 13 13 13 14 15 16 16 16 16 16 15 14 14 13 13 13 13 12 10 10 12 14 12 11 10 12 13 13 14 13 13 14 13 13 12 12 13 14 14 15 15 15 14 14 14 14
24 28 26 27 30 29 28 26 23 22 20 19 18 17 18 18 17 16 16 16 15 14 14 14 14 14 13 14 14 13 13 13 13 13 13 14 14 13 13 13 13 13 13 15 16 17 17 16 16 14 13 13 12 11 10 9 8 6 6 8 11 10 9 10 12 13 14 15 13 13 12 12 13 13 11 12 13 14 15 14 13 13 12 12 12
21 26 23 24 26 26 28 26 24 23 22 20 18 18 18 17 16 16 15 15 14 14 13 13 13 13 13 13 12 12 12 12 12 13 13 13 14 13 13 12 12 12 13 15 16 17 17 16 15 14 13 12 11 10 9 8 7 6 5 5 7 8 8 9 11 12 14 14 13 12 11 10 11 11 10 11 12 12 12 11 11 11 11 11 10
19 22 21 21 21 23 23 22 23 22 21 19 19 19 18 17 16 15 14 13 13 13 12 12 12 12 12 12 11 11 11 11 12 12 12 12 12 12 12 12 11 11 12 14 16 16 16 16 15 14 13 11 10 9 8 7 7 7 6 4 5 7 7 8 10 11 12 13 12 11 11 9 9 10 10 11 10 9 8 8 9 10 10 10 11
16 18 19 19 18 20 19 18 19 20 20 19 19 19 17 16 15 14 13 13 13 12 12 11 11 11 11 11 11 10 10 10 10 11 11 11 11 11 11 11 11 11 12 14 15 15 15 15 14 13 12 11 10 8 6 5 4 5 6 6 6 7 7 8 9 10 11 12 11 10 10 9 10 9 8 8 7 8 9 10 11 10 10 11 11
14 17 17 18 17 17 17 15 16 16 18 19 19 18 16 15 14 13 13 12 12 12 11 11 11 11 11 10 10 10 9 9 10 10 10 10 11 11 11 11 11 10 10 12 14 14 14 14 13 13 13 11 9 6 5 4 4 4 6 7 8 7 7 7 8 9 9 9 9 9 7 7 9 9 7 8 8 9 11 11 12 11 11 12 11
14 16 17 18 16 16 16 14 14 14 15 17 19 18 16 15 14 13 12 12 11 11 10 10 11 10 10 9 9 9 9 9 9 9 9 9 10 10 11 12 12 11 10 10 11 12 13 13 13 13 12 10 8 7 6 6 6 6 7 8 8 8 7 6 7 8 8 7 7 7 8 9 10 9 8 8 8 9 10 11 12 11 11 11 11
15 16 18 18 17 15 14 14 13 13 13 15 17 17 15 14 13 12 11 11 10 10 10 10 10 9 8 8 8 7 7 8 9 9 9 9 9 9 10 12 11 11 10 9 9 11 12 12 12 12 11 10 8 8 8 9 9 8 8 9 8 7 6 5 6 7 7 6 6 7 10 11 10 9 9 9 8 9 10 10 11 11 11 10 10
16 16 17 18 17 15 13 13 13 14 12 14 16 16 14 14 13 11 10 10 9 9 9 9 8 8 7 7 7 6 6 7 8 8 8 8 8 9 9 11 11 11 11 10 9 10 10 10 10 10 10 9 9 9 9 9 9 9 9 8 8 6 4 4 5 6 6 6 5 7 11 10 9 9 9 9 8 8 9 10 10 10 10 10 10
15 16 17 17 17 16 14 14 15 14 12 13 14 14 13 13 12 11 10 9 8 8 8 7 7 7 6 6 5 5 6 6 7 7 7 7 7 8 8 9 10 11 11 11 9 8 9 8 8 8 8 9 9 9 9 8 8 8 8 7 6 5 3 3 5 5 5 5 5 7 9 9 7 8 9 9 8 8 9 9 9 9 10 10 9
15 16 16 17 16 16 15 15 15 14 12 12 13 13 12 12 11 10 9 8 7 7 6 6 5 5 4 4 4 4 5 5 6 6 6 7 6 7 7 7 9 10 10 10 10 8 7 8 7 7 7 8 9 10 10 8 7 5 5 4 4 3 3 2 3 4 4 4 4 6 8 7 6 6 8 8 7 8 9 8 8 9 10 9 8
16 15 15 14 14 15 15 15 15 13 12 11 12 12 11 11 10 9 9 8 7 7 7 6 4 4 3 3 4 3 4 4 4 4 4 5 5 5 6 6 7 8 9 9 9 9 7 6 7 6 7 7 8 9 10 8 7 4 2 1 2 3 3 2 2 3 3 3 3 5 8 7 6 5 6 7 6 7 8 8 8 8 9 8 7
15 15 14 14 14 15 16 16 14 13 10 10 11 11 10 10 10 9 8 8 7 8 8 7 6 5 5 4 4 3 3 3 3 3 3 4 4 4 4 4 5 6 8 8 8 8 8 5 5 7 7 6 6 6 7 7 6 5 3 1 2 4 3 2 1 1 2 2 2 4 7 7 6 5 5 6 6 6 7 8 8 7 7 7 7
15 15 15 14 16 17 16 15 13 11 9 9 10 10 9 9 9 8 8 7 7 7 7 7 7 6 6 6 5 5 5 4 3 2 2 3 4 4 3 3 4 4 6 6 7 7 7 7 4 6 7 6 4 3 4 4 5 6 7 5 2 3 3 3 2 1 1 1 1 3 6 7 6 5 5 5 5 5 6 6 6 6 6 6 6
15 16 15 15 17 17 15 14 11 8 7 9 9 9 8 8 8 7 7 6 6 7 7 7 7 7 6 6 6 6 6 5 4 4 3 2 2 3 2 3 3 3 4 5 5 5 6 6 5 5 7 7 5 2 2 3 4 6 9 8 4 0 2 3 3 1 1 0 0 3 6 6 6 6 5 4 5 5 5 5 5 5 5 4 5
14 15 14 16 18 16 13 11 8 6 6 8 8 8 7 7 6 7 6 6 6 6 6 7 6 6 6 5 6 6 7 6 5 4 3 3 2 2 2 2 2 2 3 3 3 3 3 4 4 3 6 7 5 3 1 3 4 6 8 9 6 3 1 3 3 3 2 1 1 2 5 6 6 7 6 5 5 5 4 4 4 4 4 3 3
12 13 15 16 16 13 10 8 6 5 5 6 6 6 6 5 5 6 5 5 5 4 4 5 5 6 6 6 6 7 7 5 5 4 4 3 3 3 2 2 2 3 3 2 2 1 1 2 3 1 4 6 5 3 1 1 3 5 7 8 7 5 2 2 3 4 3 2 2 2 5 7 7 7 7 6 6 5 5 5 4 4 4 4 4
9 12 15 15 13 10 7 5 5 4 4 4 4 4 4 4 3 3 3 3 3 3 4 4 5 6 6 6 7 7 7 6 5 5 4 3 3 3 2 2 2 3 3 3 3 1 1 1 2 1 2 5 6 4 2 1 3 4 6 8 8 7 4 2 3 4 5 4 3 3 5 7 7 8 7 7 7 5 5 5 4 5 4 4 4
9 12 14 12 9 6 5 4 4 4 3 3 3 3 3 3 3 3 3 3 3 3 4 5 6 6 6 6 7 7 7 7 6 6 7 6 4 3 2 2 2 2 3 4 5 4 2 1 2 2 2 4 6 5 4 3 3 4 6 8 9 9 6 4 4 5 6 6 5 4 5 6 6 7 7 7 8 6 5 5 5 6 5 5 5
10 13 13 10 7 4 3 3 3 3 3 2 2 2 2 2 2 3 4 4 5 5 6 6 7 7 7 7 7 7 7 6 6 8 8 6 6 4 3 3 2 2 3 4 5 5 3 2 2 3 3 4 6 6 5 4 4 5 7 10 11 11 9 7 6 6 7 7 6 5 5 5 5 6 8 9 9 8 6 6 7 7 6 6 6
11 13 11 9 6 4 3 2 1 1 1 1 1 2 2 2 2 3 4 4 5 6 6 7 8 8 8 7 6 6 7 6 7 7 6 5 6 6 4 4 4 4 4 4 4 5 4 3 3 4 5 5 6 6 6 5 5 7 9 11 12 12 12 10 8 7 7 8 8 7 6 6 5 6 8 9 9 9 8 7 8 8 8 8 8
11 10 9 7 6 5 4 3 3 2 1 1 2 2 3 3 3 4 5 5 6 6 7 7 7 7 7 7 7 6 6 6 7 7 6 5 6 7 6 6 5 5 5 5 5 4 5 5 4 3 5 6 7 8 7 7 7 9 10 11 12 12 13 12 11 9 9 9 9 9 8 7 6 6 7 8 8 10 10 9 9 9 9 9 9
9 8 7 6 5 5 6 6 7 6 5 4 3 2 3 3 4 4 5 6 6 7 7 7 7 7 7 7 7 7 7 6 7 7 7 6 6 7 7 8 7 6 6 6 6 6 6 6 6 6 5 6 7 8 9 10 10 10 10 11 12 12 13 12 12 11 11 11 11 10 10 9 7 7 7 8 8 9 10 10 11 11 10 11 10
8 7 7 7 7 7 8 9 10 10 9 8 7 6 6 5 5 6 6 6 6 7 7 8 8 9 8 8 7 8 8 7 7 7 7 7 7 7 8 8 7 7 6 6 7 7 7 7 7 8 8 8 8 8 10 11 12 11 11 11 11 12 12 12 12 12 13 12 12 12 12 11 9 8 8 8 9 8 8 10 11 12 12 12 12
9 8 9 9 9 9 10 11 11 12 11 11 11 10 9 8 8 7 7 7 6 6 6 7 7 7 7 7 7 7 8 8 8 8 8 7 7 8 8 8 8 7 7 6 7 8 8 8 8 8 9 10 10 10 11 12 13 13 12 12 12 13 13 13 13 13 14 14 13 13 13 13 12 10 9 9 9 9 8 9 11 12 12 13 14
11 11 11 10 11 11 12 13 12 12 12 13 13 13 12 11 10 10 9 8 7 6 7 7 7 7 7 7 6 6 7 7 8 8 8 7 7 8 8 8 7 7 7 7 8 9 9 8 8 9 10 10 10 11 11 13 14 13 14 14 13 13 14 14 15 15 14 14 13 13 13 14 14 13 12 11 10 9 9 10 12 12 12 13 14
13 12 12 13 14 14 14 14 13 13 13 14 14 14 14 13 13 12 12 11 9 8 8 8 8 8 8 8 8 7 7 7 7 8 7 7 7 7 7 7 6 6 7 8 9 9 9 9 9 10 11 11 11 11 11 12 13 14 14 14 14 14 15 15 15 15 14 14 14 14 14 15 15 15 14 13 12 11 11 11 12 13 13 12 14
13 13 13 15 15 14 13 13 13 13 13 13 13 14 13 13 13 12 12 11 10 10 9 9 8 8 8 8 8 8 7 7 7 7 8 8 8 7 7 7 6 5 6 7 9 9 10 10 10 11 11 11 12 11 12 12 12 13 13 14 14 14 15 15 14 14 14 14 15 15 15 15 16 17 17 16 15 13 13 12 12 13 14 13 14
13 13 14 14 13 13 12 13 13 13 12 12 12 12 12 11 12 11 11 10 10 9 9 9 9 8 8 8 8 8 7 7 7 8 8 8 9 8 7 6 6 5 5 6 7 8 9 10 10 11 11 11 12 12 12 12 12 12 12 12 13 13 13 13 13 13 14 15 16 16 16 16 17 18 18 18 17 16 15 15 14 14 14 14 14
12 13 13 12 12 12 12 12 13 13 12 11 10 10 10 10 10 10 10 10 9 9 9 9 9 8 8 8 8 8 8 8 8 8 8 8 8 8 7 6 7 7 6 6 7 7 8 9 9 10 12 12 13 13 12 12 12 12 12 12 12 12 12 12 11 12 13 14 16 16 17 17 18 19 19 19 19 19 18 17 17 16 16 16 15
11 11 11 11 12 12 11 12 13 13 13 12 10 10 10 10 10 10 10 10 10 10 10 10 9 9 9 9 9 9 9 9 8 8 8 7 6 5 5 5 7 7 7 7 7 7 7 9 9 9 11 12 13 13 13 13 13 13 13 13 13 13 13 13 12 12 12 14 15 16 18 18 19 19 20 21 21 20 20 19 19 19 18 18 17
10 10 10 11 11 11 11 12 13 13 13 12 11 11 10 10 11 11 12 12 13 13 12 11 11 11 10 10 10 9 9 9 9 9 7 6 5 4 3 4 5 6 6 7 7 7 7 9 9 8 9 11 13 13 13 13 14 15 15 15 15 14 15 15 15 15 14 15 15 16 17 18 19 21 21 22 22 22 22 21 21 21 21 20 19
9 9 9 9 10 10 10 11 13 13 13 14 13 13 13 13 13 14 15 16 16 16 15 14 13 12 11 10 10 9 9 9 10 9 8 7 5 3 3 3 4 4 5 6 7 7 6 7 9 9 9 11 13 13 13 13 14 15 17 17 17 17 17 17 17 17 17 17 16 16 17 18 19 21 23 23 24 24 23 23 23 23 23 22 21
8 8 8 8 8 9 9 11 13 13 14 15 16 16 17 17 18 19 19 19 18 16 15 15 14 13 12 11 10 9 8 8 8 8 8 7 6 3 2 2 3 4 5 5 6 7 6 7 8 9 10 10 12 12 12 12 13 15 16 17 16 16 16 17 17 18 18 18 17 17 17 18 19 20 22 23 24 25 25 24 24 24 24 23 23
7 6 6 7 8 8 9 11 13 13 15 17 17 19 20 21 21 22 21 19 17 15 15 14 14 13 12 11 9 8 7 7 7 7 7 7 6 4 2 2 2 4 5 5 5 6 7 7 8 9 10 10 11 10 10 11 11 11 12 14 15 16 17 18 18 18 19 19 18 19 19 19 20 20 20 21 24 25 25 25 24 24 24 24 24
6 5 6 7 8 8 9 11 12 13 15 17 17 19 20 20 19 19 19 17 15 15 14 13 13 12 11 11 10 8 7 7 7 7 6 5 5 4 3 3 3 4 5 6 6 6 6 7 8 9 10 10 11 10 9 9 7 6 6 8 13 16 16 15 16 17 17 18 17 18 19 20 21 20 20 21 23 25 26 26 25 24 23 24 25
6 6 7 7 8 9 10 11 12 13 15 16 16 17 17 18 17 16 16 14 13 13 12 12 12 12 12 12 11 9 8 8 7 8 7 3 3 3 3 3 3 5 7 8 8 8 7 8 9 10 10 10 11 9 7 5 5 5 4 4 5 7 8 8 11 14 14 15 16 17 19 21 21 21 22 23 24 25 25 26 26 25 23 24 24
6 6 6 7 8 10 11 11 12 13 14 14 14 13 14 15 15 13 13 12 11 11 10 11 12 13 13 13 13 11 9 9 7 7 6 3 1 1 1 2 4 6 9 10 10 10 9 9 10 11 10 10 9 7 7 6 5 4 3 1 0 2 3 4 7 10 10 11 11 12 13 15 18 20 22 24 25 25 25 26 25 24 23 23 23
5 4 5 6 8 10 11 12 12 12 12 11 11 12 13 15 15 14 14 13 12 12 13 13 14 14 13 13 12 11 10 9 7 6 5 3 1 1 2 4 6 8 9 10 10 10 9 10 10 10 10 9 8 9 10 9 7 5 4 3 1 1 2 3 7 7 8 8 7 7 9 10 12 14 18 21 22 23 24 24 23 22 21 21 21
3 4 4 6 8 9 10 10 10 10 10 10 10 11 12 15 16 15 15 15 14 14 14 15 14 13 12 11 10 9 8 8 7 5 4 3 3 3 4 6 7 8 9 10 10 9 10 10 10 10 9 9 9 10 10 11 11 9 7 6 6 6 5 5 5 4 8 12 13 14 13 11 10 10 12 15 17 18 19 20 21 20 18 18 19
2 2 3 5 6 8 8 8 8 9 9 9 10 10 10 13 13 12 11 12 12 12 12 12 11 11 11 10 9 7 7 7 6 6 5 5 5 5 6 6 7 8 9 10 10 10 9 8 8 7 7 8 9 10 9 10 11 10 7 7 9 10 10 8 5 3 6 10 12 14 13 11 11 11 11 12 11 12 13 15 16 15 15 16 19
2 1 2 3 4 5 6 6 6 7 7 8 8 8 9 11 11 9 9 9 10 11 11 10 9 9 10 10 9 8 7 7 6 6 6 6 7 7 7 7 7 7 8 9 10 10 9 8 7 7 7 8 8 9 9 9 9 9 8 8 9 11 12 11 10 8 5 5 8 13 17 18 17 16 16 15 13 12 13 13 13 14 15 16 18
2 1 2 2 3 4 4 5 6 6 5 6 7 7 7 9 9 8 8 8 9 10 10 9 9 9 10 10 9 8 8 8 7 6 6 6 7 8 8 8 8 7 7 8 8 8 8 7 7 6 6 6 6 7 9 9 10 9 9 8 8 9 10 11 12 11 7 6 6 6 11 16 16 16 16 15 15 14 15 15 15 16 17 17 18
2 2 2 2 1 2 3 4 5 4 3 4 7 7 6 7 7 7 7 8 9 10 10 9 10 11 12 11 10 10 9 9 8 7 7 7 8 8 9 8 8 7 7 7 7 7 7 6 5 5 5 5 6 7 8 9 9 10 9 8 8 9 8 7 7 9 9 9 7 5 8 11 11 14 16 15 16 16 16 16 16 17 17 19 20
3 3 2 1 0 1 3 5 5 3 1 4 6 6 5 5 6 6 7 8 9 10 11 11 11 12 13 12 11 10 10 9 10 10 9 8 9 9 8 7 7 8 8 8 7 7 7 6 5 5 4 4 4 5 5 5 6 7 8 9 10 10 9 8 8 10 9 8 7 6 8 11 10 13 19 20 20 18 17 16 16 17 18 18 19
Wind_Direction
84 100 92 93 90 89 91 84 102 105 104 106 106 106 104 106 107 110 111 110 112 115 118 118 119 119 119 120 120 118 116 113 110 106 101 99 97 96 94 90 84 80 82 87 93 95 97 98 96 98 97 96 94 91 90 92 92 91 92 92 90 87 84 82 84 83 84 89 86 86 90 91 93 95 95 95 97 96 94 92 91 91 92 91 91
113 115 114 108 102 104 98 98 117 114 114 114 114 112 108 109 110 112 112 112 114 118 119 119 118 118 118 118 118 117 115 113 109 105 103 102 100 98 95 89 81 79 87 95 99 99 98 98 98 101 100 98 96 92 92 94 95 93 92 91 87 82 81 85 87 87 88 99 104 100 99 96 97 99 97 97 99 99 98 98 96 93 91 93 93
130 127 125 119 117 122 115 119 131 124 121 119 117 112 109 110 111 111 111 112 115 118 119 117 117 116 116 116 116 114 112 109 108 108 108 106 105 99 91 83 77 81 90 98 103 103 102 103 103 103 102 100 97 96 96 97 100 98 96 95 92 88 90 95 95 97 95 97 106 107 104 102 101 102 104 105 102 102 104 104 100 96 94 95 96
138 135 128 125 128 133 126 125 141 132 123 118 114 110 109 110 111 111 111 112 115 117 117 116 116 117 116 116 115 113 109 108 109 110 109 108 106 98 86 78 76 84 91 97 101 103 106 106 106 105 104 102 101 101 101 101 102 102 101 101 101 95 93 103 101 102 100 92 93 93 94 100 103 104 106 105 104 105 105 103 99 97 99 101 102
137 134 129 129 133 139 137 137 155 142 122 116 112 110 110 111 113 112 112 113 115 117 117 117 117 118 120 119 118 115 112 111 110 107 108 108 104 96 86 79 77 84 92 97 98 102 105 105 105 106 106 105 106 106 108 107 107 107 106 106 105 99 94 103 107 108 110 100 93 89 90 95 100 104 104 103 105 106 106 105 102 101 103 103 101
135 133 134 134 139 147 148 149 160 144 124 117 113 111 113 115 116 115 114 115 117 118 119 119 120 122 123 123 121 119 118 116 109 104 107 107 101 93 84 82 83 87 92 95 96 98 101 105 107 108 108 109 110 109 111 113 116 112 108 113 111 105 97 102 112 116 117 109 101 96 96 96 94 97 102 104 105 104 102 101 97 96 97 95 93
138 138 143 143 146 149 148 151 154 139 127 122 118 116 119 120 120 120 119 120 120 121 122 123 124 125 125 125 122 121 120 114 107 105 108 106 99 90 81 81 86 90 95 99 100 101 102 108 110 111 112 113 113 113 113 114 120 107 92 111 113 108 97 100 116 118 120 117 113 107 104 101 96 93 96 101 102 101 97 95 93 92 93 90 92
143 143 146 147 145 144 145 148 147 137 131 126 122 119 122 123 123 123 122 124 124 124 125 126 127 127 127 126 123 121 118 109 104 105 107 104 98 89 80 81 87 91 98 103 106 108 109 112 114 116 116 116 116 117 117 116 122 106 83 104 110 110 98 104 119 118 120 122 123 117 109 109 111 107 101 102 103 101 98 98 95 93 95 96 101
143 143 143 142 137 140 144 145 143 137 132 128 124 121 122 123 123 122 123 125 126 127 127 128 128 128 127 125 123 118 111 105 102 104 106 102 94 88 82 82 87 91 100 108 112 115 117 119 120 121 120 118 118 117 120 124 132 132 117 102 110 117 106 111 121 118 118 120 123 120 115 119 122 115 109 103 98 99 102 104 100 99 105 109 115
140 138 138 137 134 139 140 140 139 134 130 127 125 124 122 121 120 121 123 125 127 129 127 127 128 127 125 122 119 111 104 101 104 108 106 98 91 86 82 82 85 89 100 111 116 120 122 122 123 123 121 117 116 118 124 131 135 135 133 135 136 131 117 117 121 117 118 120 120 117 114 114 108 102 100 99 95 97 104 108 108 109 114 120 117
135 133 133 131 132 134 131 135 134 131 130 126 126 124 122 121 119 120 120 124 128 129 128 127 127 126 124 121 116 109 104 103 104 106 100 92 88 82 79 81 83 88 99 110 116 121 123 124 125 123 119 115 115 121 125 123 123 129 143 165 163 145 128 121 121 116 120 124 124 119 113 110 100 94 97 102 104 107 110 115 117 113 113 116 110
127 127 126 126 128 127 127 132 132 129 127 125 124 121 120 119 117 118 119 125 130 130 128 126 127 127 125 121 116 111 110 106 103 102 98 92 88 84 79 77 75 78 95 111 118 125 127 127 128 124 119 117 116 115 111 107 112 125 141 164 169 155 136 122 119 116 123 128 130 131 124 124 113 104 108 115 122 123 121 121 118 110 106 107 105
123 123 122 123 124 126 130 131 127 121 120 120 119 117 117 116 115 117 120 126 129 128 124 123 125 127 127 123 117 115 114 111 106 104 100 96 91 86 80 77 73 69 81 109 125 133 135 135 133 126 120 112 103 96 99 108 118 127 131 149 161 155 139 122 114 113 123 130 137 140 125 123 123 117 120 123 127 124 118 117 115 113 112 109 107
122 124 122 121 121 124 128 124 116 110 112 114 112 112 113 113 113 114 120 127 126 123 120 120 122 124 125 121 116 114 113 111 107 106 99 92 90 88 81 76 75 70 72 94 125 140 141 141 133 124 116 101 91 89 96 108 116 130 136 144 155 152 138 118 112 108 113 121 133 136 120 118 127 130 131 129 126 119 115 116 116 116 116 112 112
122 122 120 119 119 118 119 115 106 102 105 107 106 107 108 109 109 111 117 120 117 115 117 118 120 123 122 119 116 114 110 106 103 102 97 89 86 86 82 75 73 72 70 78 107 136 140 138 131 123 113 96 89 89 96 108 116 135 145 147 153 151 136 110 106 103 102 111 123 132 127 124 133 138 137 134 131 129 125 123 120 118 117 116 119
119 116 115 115 116 115 112 103 95 94 94 95 97 101 103 103 102 106 108 108 110 111 114 118 122 124 126 122 113 108 102 99 98 96 93 88 84 83 81 72 69 70 68 68 83 122 142 142 134 127 117 98 91 92 97 112 123 138 148 151 158 156 145 112 100 96 94 103 120 136 135 133 139 143 142 138 138 142 135 125 122 123 122 120 118
111 106 109 111 113 112 106 97 93 91 89 88 90 95 96 95 95 96 97 96 98 100 102 104 107 110 117 110 98 98 93 94 97 89 82 81 78 77 78 70 63 65 66 65 67 90 134 155 150 136 128 106 97 101 100 105 115 125 139 152 169 175 171 132 97 90 90 98 121 138 137 139 147 148 145 140 144 148 137 130 130 130 128 125 120
103 102 104 104 105 102 98 93 90 88 85 84 85 88 87 88 87 86 86 83 79 77 74 68 67 74 76 75 75 81 82 87 89 82 81 82 81 77 76 73 65 62 62 62 61 66 96 148 168 153 141 119 105 110 106 101 100 101 118 174 214 209 202 179 106 87 90 96 123 142 140 143 154 156 153 144 149 149 136 135 138 136 134 135 130
106 103 99 96 96 93 92 89 85 84 83 85 86 87 86 85 83 82 82 78 74 68 64 62 58 51 43 43 45 44 53 61 64 72 86 85 84 82 79 79 71 64 62 60 57 55 65 99 160 168 157 139 117 112 108 97 89 81 69 89 214 218 219 216 189 103 92 95 121 148 146 153 164 168 164 149 155 156 141 139 143 140 137 138 135
106 99 95 92 91 87 84 83 82 83 88 93 92 95 95 94 92 88 83 82 79 70 64 59 51 42 36 36 38 37 39 36 26 33 67 67 65 72 70 76 69 56 58 58 54 50 51 65 114 166 171 158 142 118 102 86 72 64 56 64 136 212 223 223 220 178 89 86 110 147 150 162 172 176 177 162 164 167 154 146 146 144 139 138 138
97 96 92 90 89 86 82 81 81 79 86 93 93 92 90 96 97 89 80 74 70 67 60 51 42 40 35 32 37 39 44 43 34 26 28 42 49 63 55 60 61 43 45 51 52 47 44 52 78 144 170 170 166 153 91 70 59 53 52 57 66 331 240 225 233 252 277 11 88 152 152 171 185 184 186 177 174 178 168 151 149 148 142 143 149
91 94 92 90 89 88 87 90 94 92 92 95 95 94 94 99 100 96 91 78 68 64 59 56 48 46 44 38 37 37 42 43 43 35 20 24 13 10 29 40 43 30 27 30 40 38 31 42 58 121 166 174 176 185 120 52 44 46 49 50 53 41 294 237 245 263 279 310 288 172 161 185 200 191 194 194 188 187 182 167 162 166 165 168 177
85 85 84 84 85 87 90 100 109 103 94 94 98 103 107 108 110 112 108 97 82 65 59 56 43 39 40 35 28 25 27 28 36 33 22 34 16 355 4 8 6 8 8 357 1 21 4 14 27 92 171 182 188 200 196 37 29 35 37 35 39 43 24 261 264 267 274 289 276 212 182 202 208 193 198 201 196 200 199 198 195 195 200 203 205
75 76 80 82 85 86 87 93 91 82 76 73 79 84 86 86 94 103 103 95 77 57 49 38 29 25 24 22 19 16 13 12 18 15 4 13 19 7 355 354 354 352 348 333 323 297 253 321 342 331 202 197 200 212 226 280 355 10 11 13 18 21 18 316 281 274 272 278 271 240 203 214 211 196 202 201 201 211 206 208 211 211 218 216 214
74 77 78 82 86 82 72 67 62 58 53 47 50 54 60 57 52 53 47 42 28 22 20 15 18 17 12 8 8 11 7 4 4 359 355 358 7 3 336 338 350 341 335 333 324 314 277 253 279 275 242 220 212 216 231 264 307 339 346 350 355 357 357 336 299 285 276 277 273 255 229 226 221 208 212 210 210 217 209 212 216 218 220 215 219
73 72 71 77 79 75 62 48 45 37 31 27 27 24 27 35 31 27 18 11 2 358 356 354 355 355 356 353 353 358 359 360 357 354 354 357 5 1 344 334 344 347 337 341 336 324 311 261 251 256 252 239 226 225 236 263 285 310 327 333 336 336 336 328 310 295 282 278 275 265 249 245 243 223 218 218 217 220 221 219 217 219 219 216 222
69 69 70 75 73 71 65 41 32 8 1 348 353 351 347 348 351 3 358 349 344 338 336 337 336 335 337 339 341 345 348 352 351 353 355 358 2 4 0 347 350 357 347 348 351 339 329 305 261 250 254 250 241 236 238 256 282 301 313 318 321 321 322 319 310 302 289 279 275 270 261 258 260 239 230 230 223 223 231 228 220 218 217 218 222
73 74 74 76 74 67 54 43 38 36 28 353 332 320 318 317 323 336 337 334 336 330 325 327 331 333 332 332 337 343 347 352 352 351 349 347 353 1 1 352 347 348 342 340 344 342 335 326 310 277 260 256 251 248 246 250 268 286 297 303 307 309 311 311 308 305 296 283 276 271 269 267 262 251 244 245 235 227 231 230 225 226 225 222 222
78 72 68 65 60 50 44 39 41 48 53 48 34 10 358 352 350 354 356 358 1 1 360 2 10 9 359 347 345 352 356 354 354 351 345 340 339 342 345 344 341 337 332 333 335 332 327 322 316 309 295 280 264 259 261 261 268 279 286 292 296 300 303 305 305 307 303 290 279 272 272 272 267 260 254 252 248 237 235 234 230 232 232 229 225
75 66 61 57 51 52 53 49 49 54 57 55 51 45 41 34 29 23 20 19 20 24 27 29 30 27 22 16 10 9 7 1 359 355 350 345 337 333 332 333 335 332 325 327 332 328 323 318 311 309 304 300 289 279 277 275 278 282 287 290 292 296 299 302 305 308 307 297 284 274 271 272 270 267 262 257 253 249 248 245 239 237 236 234 234
76 69 62 60 57 56 54 52 53 54 55 53 49 46 45 43 36 29 25 21 20 23 24 25 24 22 21 23 20 15 12 11 8 4 359 352 343 335 328 323 324 325 317 312 319 320 317 314 313 315 312 307 300 294 291 289 290 291 294 296 296 299 300 303 305 305 304 299 289 278 270 270 272 271 269 264 260 257 257 254 248 245 242 239 240
77 71 69 68 64 59 56 55 54 53 54 53 51 49 48 47 43 39 38 29 20 14 9 11 13 11 7 6 6 2 360 360 1 1 1 359 353 346 339 331 320 313 309 304 305 308 306 304 305 313 317 317 312 307 303 299 297 297 300 301 302 304 304 305 304 302 299 297 294 283 272 268 271 273 273 269 268 265 261 256 250 251 253 247 243
81 79 79 75 67 62 61 58 55 53 53 51 50 51 51 51 50 49 47 42 37 31 22 20 16 12 7 359 352 346 342 339 339 340 341 345 347 349 354 354 343 323 311 304 301 300 297 294 295 300 306 312 316 320 319 311 305 302 302 304 305 307 308 308 305 302 297 294 294 290 278 269 269 271 272 271 269 269 266 259 253 252 257 256 249
89 87 80 74 69 64 61 57 54 50 48 47 46 48 50 52 51 50 48 45 43 41 38 33 26 21 16 8 360 352 346 339 331 323 319 321 323 328 340 353 357 346 327 312 305 301 296 291 291 293 296 300 305 314 321 320 315 309 306 306 308 311 313 312 307 300 295 293 292 291 283 272 269 269 270 270 270 271 270 267 261 256 256 258 257
87 81 77 75 72 66 61 57 52 47 44 42 41 43 46 47 47 46 43 40 37 34 30 24 20 19 15 12 9 3 358 350 341 332 323 312 304 308 320 332 337 340 339 321 307 302 298 293 288 287 287 289 292 297 307 315 318 314 311 311 312 316 319 319 314 303 296 294 291 290 285 277 272 270 270 270 270 271 271 271 269 264 260 259 259
82 81 80 78 74 67 60 57 52 48 48 47 46 46 45 45 44 41 38 33 28 25 20 14 8 4 1 1 2 360 356 349 343 342 339 326 308 300 304 315 317 318 324 323 314 304 297 293 288 285 283 281 283 286 292 301 308 311 311 310 311 314 316 319 319 311 303 297 292 289 285 279 275 273 272 271 271 271 271 271 272 270 268 265 263
83 82 79 74 70 65 58 54 51 49 51 54 54 51 48 46 44 38 33 26 21 17 12 6 359 354 352 350 349 349 345 339 335 335 339 342 340 322 308 314 313 308 312 316 314 308 305 303 296 289 286 283 282 283 286 290 294 298 300 301 304 307 307 308 309 307 304 300 298 293 286 280 278 276 275 274 274 274 273 271 271 272 271 269 268
85 79 73 69 67 64 59 55 51 48 49 51 51 49 46 42 38 33 27 21 18 15 9 3 358 355 351 346 344 342 338 335 331 327 327 332 350 8 359 340 324 315 316 316 310 309 317 316 309 303 295 289 286 286 287 288 288 288 288 289 293 298 300 301 299 296 295 296 299 299 293 284 278 277 276 276 276 277 277 275 271 270 270 270 271
88 80 74 71 67 65 60 55 48 44 44 44 43 39 35 31 25 19 17 16 15 16 12 7 5 360 353 348 342 337 334 331 328 323 318 312 318 346 2 347 336 331 329 327 322 318 324 324 321 317 307 295 291 289 290 289 287 285 284 284 287 290 293 295 295 293 291 290 292 295 294 289 282 279 277 276 276 277 279 279 275 271 270 271 272
93 85 80 73 67 64 57 52 45 38 36 35 33 29 26 22 16 14 15 16 15 16 15 11 9 5 359 351 341 334 329 326 326 321 310 300 295 295 321 339 335 336 336 335 332 324 323 325 325 319 313 305 297 294 292 290 290 289 287 285 285 285 285 286 287 288 288 288 287 285 285 286 284 281 280 278 276 276 277 280 278 275 273 271 269
101 90 85 75 68 62 54 51 44 36 32 31 30 27 24 19 15 13 14 16 16 15 15 13 10 6 360 351 341 333 325 320 327 330 312 290 278 270 284 319 323 327 330 331 327 320 317 317 317 314 313 311 305 301 297 293 294 293 291 289 286 283 281 279 278 277 279 281 281 277 276 277 277 279 281 278 276 275 275 277 278 279 277 273 274
112 95 83 77 72 63 56 52 44 36 33 30 28 29 28 22 18 15 12 14 16 15 16 15 12 8 2 354 343 329 319 313 320 336 331 287 258 250 258 274 294 307 312 311 307 304 301 300 302 301 303 303 300 299 298 296 290 287 298 303 298 294 287 278 272 269 269 269 269 268 267 266 267 270 273 273 273 274 274 276 277 279 279 278 281
110 94 83 76 69 60 54 48 38 32 30 26 26 29 27 22 20 18 12 13 17 16 15 16 14 9 6 1 351 336 321 311 307 326 339 311 250 248 259 271 293 304 304 299 291 286 286 288 291 294 298 299 298 297 299 301 283 283 307 314 308 312 301 284 273 265 259 259 258 258 259 260 261 263 265 268 269 271 273 275 277 279 281 282 284
112 98 82 66 55 49 43 37 32 29 26 24 24 25 21 19 21 22 19 19 21 15 12 17 16 11 9 5 360 350 336 325 311 314 330 335 280 267 283 305 314 308 301 295 290 290 291 293 295 296 297 298 301 303 309 317 300 286 303 293 344 341 295 308 309 283 265 261 256 253 256 257 259 260 262 264 267 270 272 274 277 280 284 286 287
115 88 65 50 42 39 35 31 29 25 22 19 18 16 12 13 16 20 22 23 20 15 13 13 14 13 11 8 2 353 343 335 323 311 311 307 298 300 301 308 307 300 294 292 293 294 295 295 294 294 294 291 293 298 305 313 307 286 271 255 279 297 263 342 339 303 284 281 268 266 272 269 265 263 261 261 262 266 269 272 275 279 284 288 289
94 65 47 35 31 32 31 29 25 21 17 15 14 11 10 12 13 16 18 17 13 14 15 11 10 13 14 13 7 353 342 335 326 315 303 294 289 289 291 293 292 289 286 284 284 285 289 295 298 298 297 292 289 291 294 301 303 297 282 263 264 267 273 316 331 309 301 294 283 281 280 277 275 271 268 266 262 262 265 269 273 276 282 287 290
90 60 35 26 28 32 31 29 22 17 16 15 12 13 13 12 12 14 17 16 9 9 14 14 11 12 16 20 17 5 352 341 329 318 312 309 309 305 298 292 289 288 284 282 283 286 290 295 298 296 295 292 290 290 290 296 302 304 300 289 285 279 274 278 276 282 306 297 289 288 285 283 283 280 281 282 276 271 269 270 272 276 283 288 292
129 59 36 34 36 38 33 29 20 11 13 13 9 13 14 11 9 10 17 20 11 6 11 17 16 12 16 21 22 21 13 1 347 331 322 318 320 323 323 319 311 305 303 302 302 303 301 298 290 281 280 284 287 289 292 300 300 296 297 293 286 280 271 264 259 260 276 293 297 293 291 295 292 283 281 283 283 282 280 280 279 282 288 292 295
142 98 80 60 50 45 29 18 6 358 2 5 3 7 9 8 9 8 12 18 11 5 8 13 14 14 20 23 21 24 23 16 7 357 346 337 335 337 339 341 340 338 334 331 328 321 316 315 310 302 295 294 292 292 292 292 288 284 290 292 279 273 272 268 263 258 256 269 283 287 295 304 303 290 284 281 283 288 288 288 287 287 289 290 294
138 116 104 87 76 44 14 355 343 342 352 354 358 3 5 9 11 8 8 10 5 2 4 5 6 10 17 19 19 21 19 16 24 30 23 9 1 356 353 352 355 4 5 0 1 353 342 336 331 321 307 299 291 286 285 286 289 286 285 287 280 270 266 262 255 249 249 255 262 270 285 295 300 297 297 297 297 298 296 293 290 290 290 289 292
170 173 158 151 178 326 346 338 328 326 332 341 354 1 5 10 9 4 3 6 4 1 1 1 359 2 8 11 15 20 19 23 38 43 39 32 25 17 15 14 9 11 18 17 13 10 7 4 4 357 340 333 321 310 306 299 296 287 275 270 268 266 262 262 258 250 244 244 257 268 274 279 282 289 299 304 303 300 298 295 291 290 292 293 295